Regional Weather Roundup
Issued by NWS Sterling, VA

Home | Current Version | Previous Version | Text Only | Print | Product List | Glossary On
Versions: 1 2 3 4 5 6 7 8 9 10 11 12 13 14 15 16 17 18 19 20 21 22 23 24 25 26 27 28 29 30 31 32 33 34 35 36 37 38 39 40 41 42 43 44 45 46 47 48 49 50
000
ASUS41 KLWX 160410
RWRLWX

REGIONAL WEATHER ROUNDUP
NATIONAL WEATHER SERVICE BALTIMORE MD/WASHINGTON DC
1200 AM EDT TUE SEP 16 2014

Note: "FAIR" indicates few or no clouds below 12,000 feet
with no significant weather and/or obstructions to visibility.
 TC=TEMPERATURE CELSIUS

 * =Non NWS site. Station does not report precipitation (e.g. rain,
    snow, etc.), thunder, or fog.

DCZ001-MDZ009-015-VAZ040>042-051-053>054-160500-
WASHINGTON METRO

CITY           SKY/WX    TMP DP  RH WIND       PRES   REMARKS
WASHINGTON NAT CLOUDY    68  59  73 S7        30.05F
DULLES         CLOUDY    63  59  87 S7        30.04F
ANDREWS AFB    MOCLDY    61  58  90 S7        30.06F
QUANTICO       CLOUDY    67  60  78 SW7       30.05F
COLLEGE PARK*  CLOUDY    63  59  88 CALM      30.05F
LEESBURG*      CLOUDY    63  61  94 S3        30.05F
MANASSAS*      CLOUDY    63  63 100 CALM      30.04F
GAITHERSBURG*  CLOUDY    63  57  82 SE7       30.08F

$$

MDZ006>007-011-014-160500-
BALTIMORE METRO

CITY           SKY/WX    TMP DP  RH WIND       PRES   REMARKS
BWI AIRPORT    CLOUDY    63  56  78 CALM      30.05F
MD SCIENCE CTR   N/A     66  56  70 MISG      30.06F
MARTIN STATE   MOCLDY    64  61  88 SE3       30.07F
ANNAPOLIS      MOCLDY    66  59  78 S8        30.05F
FORT MEADE*    CLOUDY    55  54  94 CALM      30.08F

$$

MDZ012-015-019>023-160500-
MARYLAND EASTERN SHORE

CITY           SKY/WX    TMP DP  RH WIND       PRES   REMARKS
OCEAN CITY     PTCLDY    67  56  67 S6        30.09F
SALISBURY        N/A    N/A N/A N/A MISG        N/A
BAY BRIDGE AP*   N/A     68  59  73 S7        30.07F
CAMBRIDGE*     MOCLDY    61  57  88 S3        30.07F
EASTON*        CLOUDY    64  60  88 CALM      30.11S

$$

MDZ017>025-160500-
SOUTHERN MARYLAND

CITY           SKY/WX    TMP DP  RH WIND       PRES   REMARKS
PATUXENT RIVER CLOUDY    67  60  78 S5        30.07F
ST INIGOES     CLOUDY    68  59  73 S10       30.06F
LEONARDTOWN*   CLOUDY    64  59  82 S6        30.08F

$$

MDZ003>005-160500-
NORTH CENTRAL MARYLAND

CITY           SKY/WX    TMP DP  RH WIND       PRES   REMARKS
FREDERICK*     CLOUDY    59  57  94 CALM      30.07F
HAGERSTOWN APT CLOUDY    62  54  74 CALM      30.05S
WESTMINSTER*   CLOUDY    63  55  77 S5        30.06F

$$

MDZ501>502-160500-
WESTERN MARYLAND

CITY           SKY/WX    TMP DP  RH WIND       PRES   REMARKS
OAKLAND*       MOCLDY    52 N/A N/A W6        30.11S
CUMBERLAND*    MOCLDY    61  54  77 N3        30.09S

$$

VAZ025>031-160500-
SHENANDOAH VALLEY

CITY           SKY/WX    TMP DP  RH WIND       PRES   REMARKS
WINCHESTER*    CLOUDY    64  55  72 CALM      30.04R
STAUNTON*      CLOUDY    65  60  83 SW7       30.07S

$$

WVZ021-048>050-054>055-160500-
EASTERN WEST VIRGINIA PANHANDLE

CITY           SKY/WX    TMP DP  RH WIND       PRES   REMARKS
MARTINSBURG    CLOUDY    62  54  74 N5        30.05R
PETERSBURG*    CLOUDY    58  56  92 W3        30.07R

$$

VAZ036>039-050-160500-
CENTRAL FOOTHILLS

CITY           SKY/WX    TMP DP  RH WIND       PRES   REMARKS
CHARLOTTESVILL CLOUDY    66  61  84 S7        30.04F
ORANGE*        CLOUDY    64  61  88 S3        30.06F

$$

VAZ055>057-160500-
NORTH AND CENTRAL PIEDMONT

CITY           SKY/WX    TMP DP  RH WIND       PRES   REMARKS
FREDERICKSBRG* CLOUDY    67  61  83 S6        30.05F
STAFFORD*      CLOUDY    63  63 100 CALM      30.09F

$$

NCZ024-NYZ072-PAZ021-071-VAZ022-071-160500-
OTHER REGIONAL OBSERVATIONS

CITY           SKY/WX    TMP DP  RH WIND       PRES   REMARKS
NEW YORK CITY  PTCLDY    62  51  67 SW5       30.10F
PHILADELPHIA   CLOUDY    62  51  67 VRB6      30.09S
PITTSBURGH     CLOUDY    60  53  77 S3        30.04F
ROANOKE        CLOUDY    66  62  87 SE3       30.09F
RICHMOND       MOCLDY    65  61  87 CALM      30.07F
RALEIGH        CLOUDY    69  65  86 S5        30.11F

$$

ANZ530>537-160500-
MARINE OBSERVATIONS

STATION/POSITION TIME  TEMP    WIND        PRES
                       AIR SEA DIR/SP/G
                 (UTC) (F)     (DEG/KT/KT) (MB)
THOMAS PT LIGHT  0400   70 74  200/ 18/ 20 1018.7F
BALT KEY BRIDGE  0400   66                 1017.5F
COVE POINT       0400   68                 1018.2F
LEWISETTA        0400   67                 1018.1F
SOLOMONS ISLAND  0300      76                N/A
PINEY POINT      0300          210/ 12/ 13   N/A

$$



USA.gov is the U.S. government's official web portal to all federal, state and local government web resources and services.